Temperature
14 14 15 15 13 11 13 14 14 15 15 16 17 17 16 16 16 17 17 17 17 17 16 16 16 16 17 17 17 17 17 17 17 16 16 16 16 16 16 16 16 16 16 16 16 16 16 16 16
14 14 15 15 12 13 13 14 14 15 16 16 16 16 16 15 16 16 16 16 16 16 16 16 16 16 16 16 16 16 16 16 16 16 16 16 16 16 16 16 16 16 16 16 16 16 16 16 16
14 14 15 11 11 12 15 15 14 15 16 17 16 16 15 15 16 16 16 16 16 16 16 16 16 16 16 16 16 16 16 16 16 16 16 16 16 16 15 15 15 16 16 16 15 15 15 15 15
13 14 13 11 12 12 14 16 15 15 16 16 16 15 15 15 16 16 16 16 16 16 16 16 16 16 16 16 16 16 16 16 16 16 16 16 16 15 15 15 15 15 15 15 15 15 15 15 15
13 14 11 11 12 12 12 14 15 15 15 15 15 14 15 15 15 16 16 16 16 16 15 16 15 16 16 16 16 16 16 16 16 16 16 15 15 15 15 15 15 15 15 15 15 15 15 15 15
13 11 11 11 12 13 13 15 16 15 15 15 15 14 15 15 15 15 15 15 15 15 15 15 15 15 15 15 15 15 15 15 15 15 15 15 15 15 15 15 15 15 15 15 15 15 15 15 15
12 10 11 12 12 13 14 16 15 14 14 15 16 14 14 15 15 15 15 15 15 15 15 15 15 15 15 15 15 15 15 15 15 15 15 15 15 15 15 15 15 15 15 15 15 15 14 14 14
13 10 11 11 12 14 15 16 16 16 15 16 16 14 14 15 15 15 15 14 15 15 15 15 15 15 15 15 15 15 15 15 15 15 15 15 15 15 15 15 15 15 14 14 14 14 14 14 14
12 10 11 11 12 14 15 15 15 16 15 15 15 16 16 15 15 14 14 14 14 14 14 15 15 15 15 15 15 15 15 15 15 15 15 15 15 15 15 15 14 14 14 14 14 14 14 13 13
11 10 11 12 13 14 15 15 15 15 14 14 15 15 15 15 15 14 14 14 14 14 14 14 14 15 15 15 15 15 15 15 15 15 15 15 15 14 14 14 14 14 14 14 14 13 13 13 13
11 10 12 13 14 14 14 15 15 14 14 14 15 15 15 14 14 14 14 14 14 14 14 14 14 14 14 14 14 14 14 14 14 14 14 14 14 14 14 14 14 14 13 13 13 13 13 13 13
10 11 12 13 14 14 14 14 14 15 16 17 17 16 15 14 14 15 15 14 14 14 14 14 14 14 14 14 14 14 14 14 14 14 14 14 14 14 13 13 13 13 13 13 13 13 13 12 12
10 11 12 13 14 14 14 13 14 14 16 16 16 15 15 15 15 15 14 14 14 14 14 14 14 14 14 14 14 14 14 14 14 14 13 13 13 13 13 13 13 13 13 13 12 12 12 12 12
11 11 12 13 13 13 13 13 13 14 15 15 15 14 15 15 15 14 14 14 14 14 14 14 14 14 13 13 13 13 13 13 13 13 13 13 13 13 13 13 13 13 12 12 12 12 12 12 12
11 11 11 11 12 13 13 12 12 13 14 14 14 14 14 14 14 15 15 15 14 14 14 13 13 13 13 13 13 13 13 13 13 13 13 13 12 12 12 12 12 12 12 12 12 12 11 11 11
10 10 10 11 11 12 12 11 12 13 13 12 13 13 13 13 14 14 14 14 14 14 13 13 13 13 13 13 13 13 13 12 12 12 12 12 12 12 12 12 12 12 12 11 11 11 11 11 11
9 9 9 10 10 10 11 11 11 11 12 11 12 12 13 13 13 14 14 14 14 14 13 13 13 13 13 13 12 12 12 12 12 12 12 12 12 12 12 11 11 11 11 11 11 11 11 11 10
8 8 9 9 10 10 10 9 9 10 10 10 11 11 12 13 13 14 14 14 14 13 13 13 13 12 12 12 12 12 12 11 11 11 11 11 11 11 11 11 11 11 11 11 10 10 10 10 10
8 8 9 9 10 10 9 9 9 9 9 9 9 10 11 12 13 13 13 13 13 13 13 13 12 12 12 12 12 12 12 11 11 11 11 11 11 11 10 10 10 10 10 10 10 10 10 10 9
8 8 8 9 9 9 8 8 8 8 8 9 9 10 11 11 12 12 13 13 13 13 13 12 12 12 12 12 12 12 11 11 11 11 10 10 10 10 10 10 10 10 10 10 9 9 9 9 8
8 8 8 9 9 9 9 8 8 8 8 9 9 10 10 11 12 12 12 12 12 12 12 12 12 12 12 12 11 11 11 11 10 10 10 10 10 10 10 10 9 9 9 9 9 8 8 8 7
8 8 8 9 8 7 8 7 8 8 7 7 7 8 9 10 11 12 12 12 12 12 12 12 12 12 12 11 11 11 11 11 11 10 10 10 9 9 9 9 9 9 9 8 8 8 7 7 7
8 8 8 8 7 6 7 7 7 7 7 7 7 8 9 10 11 11 12 12 12 12 12 12 12 11 11 11 11 11 11 11 10 10 10 9 9 9 9 9 8 8 8 8 7 7 7 6 6
7 7 7 6 6 6 6 6 7 6 7 8 7 7 9 10 10 11 11 12 12 12 12 11 11 11 11 11 11 11 10 10 10 10 9 9 9 9 8 8 8 8 7 7 7 6 6 6 6
7 6 6 6 5 6 6 6 7 6 6 7 7 7 8 9 10 10 10 11 11 11 11 11 11 11 11 11 10 10 10 10 10 9 9 9 9 8 8 8 8 7 7 7 6 6 6 5 5
6 7 6 6 6 5 5 6 6 6 5 6 7 7 8 8 9 9 10 10 11 11 11 11 10 10 10 10 10 10 9 9 9 9 9 9 8 8 8 7 7 7 6 6 6 6 5 5 5
6 6 6 5 4 5 5 4 5 5 5 5 5 6 6 7 8 9 9 10 10 10 10 10 10 10 10 10 10 9 9 9 9 8 8 8 8 7 7 7 7 6 6 6 5 5 5 5 4
6 5 5 5 5 6 6 5 6 6 5 5 4 4 5 6 7 8 9 9 9 10 10 9 9 9 9 9 9 9 8 8 8 8 8 7 7 7 7 6 6 6 6 5 5 5 5 4 4
5 5 5 4 4 5 6 6 5 5 5 4 3 4 4 5 6 7 8 8 8 9 9 9 9 9 9 9 8 8 8 8 7 7 7 7 7 6 6 6 6 5 5 5 5 4 4 4 4
5 5 4 5 4 3 4 5 5 4 3 3 3 4 4 5 6 6 7 7 7 7 8 8 8 8 8 8 8 8 7 7 7 7 6 6 6 6 6 5 5 5 4 4 4 4 4 3 3
Wind_Speed
1 3 3 4 5 3 4 6 4 3 3 1 2 5 8 7 5 4 2 5 8 8 9 13 15 14 15 15 14 14 14 14 14 14 14 14 14 13 13 12 12 12 12 12 12 12 13 13 13
2 2 4 5 5 3 6 6 6 5 4 4 3 4 4 2 1 4 4 5 9 9 10 12 15 15 15 15 15 15 14 14 14 14 13 13 13 13 13 13 12 12 12 12 12 12 12 12 12
2 3 4 5 5 7 6 5 7 2 2 3 3 3 3 3 3 4 4 8 9 9 10 13 16 16 15 15 15 15 14 14 14 14 13 13 13 13 13 12 12 12 12 12 11 11 11 11 11
3 4 4 3 7 7 6 3 4 3 2 2 4 3 1 1 2 4 8 9 10 8 10 13 16 16 15 15 15 15 14 14 14 14 13 13 13 12 12 12 12 12 12 12 11 11 11 11 11
3 4 3 3 7 6 5 4 3 3 3 3 4 4 1 4 4 9 10 10 10 8 10 13 15 16 15 15 14 14 14 14 14 13 13 13 13 13 12 12 12 12 11 11 11 11 11 11 11
3 4 4 6 7 5 5 4 3 3 3 4 5 5 1 1 6 9 9 9 9 9 9 12 15 15 15 15 14 14 14 13 13 13 13 13 13 13 13 12 12 12 11 11 11 11 11 12 11
4 5 6 6 4 5 4 5 6 5 4 6 7 6 2 3 6 9 9 9 8 9 9 9 12 13 15 15 14 14 14 13 13 13 13 13 12 12 12 12 12 12 11 11 11 11 11 11 11
4 5 5 5 5 5 3 3 3 6 5 4 7 8 6 7 9 10 9 8 8 7 7 8 10 12 12 13 14 14 14 13 13 13 13 13 12 12 12 12 12 12 11 11 11 11 11 11 11
3 3 6 8 8 5 2 3 1 2 6 3 2 3 4 13 12 11 9 7 7 6 6 7 8 10 11 11 12 13 13 13 13 12 13 12 12 12 11 12 11 11 11 11 10 10 10 10 10
4 6 9 5 5 4 2 3 4 4 4 2 2 3 9 13 14 14 12 12 10 8 6 6 7 8 10 10 11 11 11 12 12 11 12 11 11 10 10 11 11 11 11 11 11 10 9 9 9
6 8 5 4 3 2 2 2 2 7 5 7 8 10 14 13 13 13 12 11 10 9 7 6 6 8 9 8 9 9 9 10 10 11 11 11 10 10 9 9 9 10 10 10 9 10 9 8 7
5 5 4 3 1 1 1 2 1 4 5 4 8 15 17 17 16 15 14 12 10 9 8 6 6 7 8 8 7 7 7 7 7 8 9 9 7 7 7 7 7 8 8 8 8 7 7 7 7
5 4 3 3 1 1 0 1 2 4 3 4 9 13 16 16 14 11 10 9 9 9 8 7 7 7 7 7 6 6 6 6 7 8 8 9 7 5 5 5 7 7 7 7 6 6 6 6 6
6 3 2 2 2 1 2 3 1 4 3 6 9 12 12 13 12 10 10 10 10 9 9 7 7 7 8 6 5 5 6 7 7 7 7 8 8 6 5 4 5 6 6 6 5 5 4 4 4
3 2 3 3 3 3 2 5 6 5 5 7 8 9 9 9 9 11 12 11 11 9 9 8 8 7 7 7 6 6 6 7 6 6 7 7 8 7 6 4 4 4 6 6 5 5 4 3 4
4 3 4 4 4 3 6 9 5 4 8 8 7 7 8 8 8 9 9 8 9 9 9 8 8 8 7 6 6 6 7 7 6 6 7 7 7 7 7 4 3 5 6 5 3 3 3 3 3
4 7 7 4 4 4 6 7 3 3 8 8 7 8 7 7 6 7 7 8 9 10 10 9 8 8 7 7 6 6 6 6 6 6 6 6 7 7 7 4 4 5 5 4 3 3 2 3 4
8 7 6 7 3 5 6 7 4 2 6 7 6 6 7 8 9 7 7 8 8 8 9 9 8 8 7 6 6 4 5 4 5 5 5 6 6 7 7 5 5 5 4 3 3 3 3 2 3
7 6 6 5 3 4 7 8 8 5 5 6 6 7 8 8 5 5 6 7 7 8 8 8 9 8 7 5 4 4 3 2 2 3 5 6 6 6 6 4 4 4 3 2 2 2 3 4 3
6 6 5 2 1 3 4 7 7 6 7 8 9 9 9 6 4 5 6 7 9 9 9 9 9 9 8 6 4 3 3 2 2 3 4 5 5 5 5 4 3 3 2 3 3 2 2 2 4
7 8 7 4 1 2 1 6 5 4 4 4 6 7 7 9 9 8 8 8 9 9 11 10 10 9 8 7 5 5 4 3 2 2 1 3 4 4 5 4 3 2 2 1 2 2 2 1 3
8 6 7 6 3 2 2 4 6 4 4 5 6 6 7 7 8 8 9 9 10 10 9 9 9 9 8 9 8 8 5 4 3 2 1 2 3 4 4 4 3 2 2 1 1 1 1 0 1
5 5 5 5 4 1 2 4 7 2 6 7 7 8 8 8 8 9 9 10 9 8 9 8 9 8 8 8 9 9 5 3 3 2 3 2 2 3 3 3 3 2 1 1 1 1 1 0 1
6 6 5 4 3 4 7 6 7 5 8 6 5 6 7 7 7 6 6 6 6 6 7 8 9 8 8 8 8 8 8 6 5 3 2 1 1 1 2 2 2 1 1 1 1 0 1 1 1
7 7 3 1 2 7 5 6 8 5 5 6 6 5 5 5 6 6 6 7 7 8 9 9 10 8 8 8 7 7 7 8 7 5 4 2 1 0 1 1 1 1 1 1 1 1 1 1 2
8 9 8 7 7 3 3 8 6 4 3 3 3 3 3 3 4 6 7 8 8 8 9 9 10 8 8 8 6 5 6 5 4 4 4 3 2 2 1 0 0 1 1 1 1 1 1 1 2
8 6 5 5 2 2 5 6 7 2 2 1 1 0 2 2 3 4 5 6 7 8 9 10 10 9 8 7 6 5 5 5 4 4 3 2 1 1 1 0 0 1 1 1 1 1 2 2 2
6 8 4 5 5 4 4 5 5 3 3 1 1 1 1 1 2 3 4 5 5 6 7 7 8 9 7 7 6 5 4 4 4 4 3 2 2 1 1 0 0 1 1 1 1 2 2 2 3
5 6 5 5 4 5 4 6 3 4 3 3 2 1 1 1 2 2 2 3 4 5 6 6 7 7 6 6 5 5 4 3 4 3 3 2 2 1 1 1 1 1 1 1 1 2 3 3 4
4 7 7 6 5 4 4 4 3 2 2 2 2 1 2 2 2 3 3 4 5 5 6 6 6 6 6 6 5 5 4 4 3 2 2 2 2 2 2 1 1 2 2 2 2 3 4 4 4
Wind_Direction
356 68 74 62 64 66 228 234 216 213 206 205 141 139 150 153 164 176 112 132 129 133 138 138 135 131 125 119 115 114 111 107 105 103 103 102 100 97 95 92 88 85 83 81 79 78 75 73 69
117 88 61 70 113 186 249 232 214 209 174 132 81 92 106 132 97 112 131 141 131 130 131 134 134 130 126 122 118 114 111 109 107 104 102 100 97 95 92 90 87 84 82 80 78 77 75 73 69
132 66 94 99 157 193 223 217 208 210 176 145 99 75 120 143 141 147 150 138 123 119 123 131 131 129 126 123 119 115 112 108 106 103 100 98 95 93 91 88 86 84 82 80 78 76 75 72 71
109 66 68 117 212 221 223 216 170 143 124 103 124 99 62 27 167 145 131 128 120 111 116 128 129 129 126 124 120 118 115 111 106 101 98 95 93 90 88 86 85 83 82 79 77 75 73 71 71
68 96 115 208 233 241 239 229 178 151 152 127 128 127 74 354 100 121 126 125 122 115 114 127 129 128 126 124 121 118 115 112 107 103 100 96 91 89 87 84 83 81 80 78 75 74 71 70 68
82 93 145 214 236 252 247 207 167 158 145 137 135 127 127 64 124 129 126 122 120 118 113 125 129 127 125 122 120 117 115 112 108 104 100 97 93 89 85 83 81 80 79 77 75 72 68 66 65
135 140 185 201 218 243 228 177 165 162 167 183 157 130 145 156 140 128 119 114 109 108 107 109 118 122 123 121 119 115 113 110 106 102 99 96 92 89 85 81 79 78 77 75 74 72 67 64 62
147 137 178 202 199 229 206 165 165 163 177 154 147 151 180 175 138 122 114 110 109 104 104 103 105 109 110 114 117 115 112 108 104 99 94 91 87 84 81 79 78 75 74 72 71 70 66 62 60
118 132 202 206 193 220 193 152 98 105 125 129 166 183 170 137 135 129 125 122 123 118 111 107 105 104 104 105 109 109 107 105 101 95 92 87 81 77 75 77 75 73 71 69 67 66 61 59 54
148 194 216 209 195 205 193 165 159 119 128 138 89 80 124 139 149 152 154 156 154 149 137 121 114 109 105 104 100 98 97 96 96 96 93 88 83 78 75 72 69 67 65 63 60 57 54 52 46
179 205 215 231 223 207 174 161 159 139 186 196 181 160 149 155 160 163 165 164 162 156 147 135 123 115 110 106 102 97 97 95 95 97 97 93 83 77 71 66 61 59 56 56 52 50 47 47 43
191 221 210 231 191 136 165 148 148 189 218 200 174 159 159 167 173 174 171 168 160 156 154 143 129 120 114 111 108 106 103 101 98 99 102 97 86 74 68 65 60 57 56 53 49 47 42 39 35
211 223 218 239 269 264 206 214 211 254 273 121 136 154 166 174 177 176 167 161 159 161 158 151 138 130 123 114 113 110 110 110 108 103 101 102 96 84 75 67 62 57 55 53 46 42 36 30 24
202 207 234 264 253 255 210 269 216 255 154 136 151 167 176 178 174 166 164 168 171 168 162 153 146 138 130 123 120 119 118 116 109 105 105 104 102 96 84 69 59 52 51 53 51 42 34 22 21
154 175 280 252 211 217 153 273 234 224 156 162 172 177 180 182 175 179 180 177 175 169 160 157 153 140 134 128 126 122 121 118 110 108 107 104 103 99 92 75 56 47 50 51 46 37 34 18 12
136 169 225 241 185 187 162 245 255 193 169 183 186 185 186 191 191 190 182 174 168 163 162 162 157 146 141 131 124 120 118 114 111 111 107 102 100 99 92 76 57 49 51 49 40 24 18 8 0
166 201 214 237 194 167 179 237 265 184 173 189 194 192 192 197 204 198 183 174 170 167 164 161 153 151 144 129 119 114 110 107 110 111 106 102 98 95 91 78 61 56 53 43 29 25 19 1 349
191 192 199 208 207 169 202 242 269 203 183 202 206 201 198 201 212 200 184 173 166 162 158 157 151 147 136 123 110 100 93 90 98 103 105 102 96 92 89 79 62 58 53 35 27 24 17 2 335
165 169 195 215 215 178 218 247 259 237 205 212 217 213 212 216 214 187 178 165 157 157 155 159 156 154 146 140 139 132 133 121 101 93 100 103 98 95 91 78 62 57 59 39 25 25 16 8 349
168 177 193 219 197 185 235 260 258 237 219 211 210 212 213 211 202 188 175 168 171 170 167 165 164 162 163 160 149 139 133 123 112 91 87 99 100 98 94 85 73 61 61 40 28 30 29 12 13
200 189 185 183 49 32 10 289 256 250 224 218 216 213 207 202 200 193 183 182 177 178 177 175 171 165 162 147 127 108 88 76 77 85 84 75 98 96 95 92 83 65 71 57 21 34 56 15 5
213 194 171 160 145 247 172 257 266 243 252 235 230 221 213 208 199 192 185 184 185 187 178 171 167 160 157 150 150 148 151 157 172 161 140 79 91 94 93 91 84 70 62 62 11 27 19 101 334
181 146 149 157 158 246 225 215 272 238 238 238 233 227 221 211 200 195 191 189 185 178 171 167 157 154 153 156 158 154 147 147 131 119 115 98 69 83 85 90 79 63 53 46 17 6 353 264 244
130 94 73 68 103 232 216 195 262 229 223 234 235 231 223 211 200 194 185 170 166 160 158 156 154 154 153 153 155 157 153 142 134 133 137 127 89 63 64 78 71 61 41 7 333 331 323 296 271
141 130 117 138 208 237 193 199 244 246 231 217 222 229 221 203 189 179 171 169 167 163 161 158 156 155 155 153 155 159 158 156 159 162 164 157 148 240 246 38 40 15 3 352 1 336 306 283 270
177 161 165 181 201 240 180 221 247 261 262 242 233 225 205 191 183 181 180 176 169 164 161 158 158 156 157 157 157 153 152 157 160 161 164 174 189 209 211 13 349 327 327 339 354 324 292 293 275
162 184 157 130 126 181 238 271 292 287 303 291 269 207 195 187 178 175 171 166 163 161 164 164 160 155 157 158 151 148 151 154 156 157 154 165 174 183 153 165 317 315 315 316 329 300 290 286 278
159 148 127 144 163 215 250 249 244 263 255 275 279 227 222 161 150 153 163 164 162 160 155 153 155 156 154 153 156 155 155 156 153 148 150 161 170 158 168 199 257 305 317 318 317 296 288 290 288
142 153 148 147 168 172 219 255 232 221 223 228 240 225 164 140 145 142 141 143 137 131 134 137 141 139 143 148 147 140 142 137 137 148 163 169 169 171 194 217 240 264 283 302 296 290 289 290 296
170 169 160 168 198 186 187 257 326 235 232 194 176 119 91 88 87 96 102 108 114 122 129 132 136 139 147 146 139 135 132 128 133 148 166 166 182 198 206 212 235 260 273 274 272 282 286 284 289
Height
1485 1487 1490 1494 1498 1508 1506 1498 1493 1491 1490 1488 1488 1490 1492 1495 1499 1504 1499 1499 1503 1507 1510 1513 1515 1518 1520 1521 1523 1524 1526 1527 1528 1529 1530 1530 1531 1532 1533 1533 1534 1534 1535 1535 1535 1536 1536 1536 1536
1485 1488 1492 1493 1503 1511 1505 1494 1491 1488 1486 1487 1488 1489 1491 1492 1494 1495 1496 1500 1504 1507 1510 1513 1516 1518 1520 1522 1523 1525 1526 1527 1528 1529 1530 1531 1532 1533 1533 1534 1534 1535 1535 1535 1536 1536 1536 1536 1536
1485 1487 1491 1494 1502 1504 1495 1487 1486 1485 1486 1486 1488 1489 1491 1492 1493 1495 1497 1500 1504 1508 1511 1513 1516 1518 1520 1522 1524 1525 1527 1528 1529 1530 1531 1532 1533 1533 1534 1534 1535 1535 1535 1536 1536 1536 1536 1536 1537
1485 1489 1491 1497 1497 1493 1487 1483 1483 1484 1485 1486 1487 1490 1491 1493 1494 1495 1498 1501 1505 1508 1511 1514 1516 1519 1521 1522 1524 1526 1527 1528 1529 1530 1531 1532 1533 1534 1534 1535 1535 1536 1536 1536 1536 1536 1537 1537 1537
1484 1486 1493 1497 1493 1488 1483 1482 1482 1483 1484 1485 1487 1489 1491 1493 1494 1496 1499 1502 1505 1508 1511 1514 1517 1519 1521 1523 1525 1526 1527 1529 1530 1531 1532 1533 1533 1534 1535 1535 1535 1536 1536 1536 1536 1537 1537 1537 1537
1483 1485 1495 1496 1490 1484 1481 1480 1481 1482 1484 1485 1487 1489 1491 1493 1495 1497 1500 1503 1506 1509 1512 1514 1517 1519 1521 1523 1525 1526 1528 1529 1530 1531 1532 1533 1534 1534 1535 1535 1536 1536 1536 1536 1537 1537 1537 1537 1536
1482 1486 1490 1489 1487 1483 1479 1478 1479 1481 1483 1484 1485 1488 1490 1493 1496 1498 1501 1504 1507 1510 1512 1514 1517 1519 1521 1523 1525 1526 1528 1529 1530 1531 1532 1533 1534 1534 1535 1535 1536 1536 1536 1536 1536 1536 1536 1536 1536
1479 1484 1486 1487 1485 1480 1476 1476 1477 1479 1481 1483 1485 1486 1488 1491 1495 1498 1501 1504 1507 1510 1512 1514 1517 1519 1521 1523 1525 1526 1528 1529 1530 1531 1532 1533 1534 1534 1535 1535 1535 1536 1536 1536 1536 1536 1536 1536 1535
1478 1485 1485 1482 1481 1477 1474 1475 1476 1477 1479 1481 1483 1484 1486 1490 1493 1497 1500 1503 1506 1509 1512 1514 1516 1519 1521 1523 1524 1526 1528 1529 1530 1531 1532 1533 1533 1534 1534 1535 1535 1535 1535 1536 1536 1535 1535 1535 1535
1476 1481 1478 1474 1473 1473 1473 1473 1475 1477 1479 1480 1482 1483 1486 1488 1492 1495 1498 1501 1504 1507 1511 1514 1516 1518 1520 1522 1524 1526 1527 1529 1530 1531 1532 1533 1533 1534 1534 1534 1535 1535 1535 1535 1535 1535 1535 1534 1534
1473 1474 1472 1471 1471 1471 1472 1472 1474 1475 1478 1477 1477 1480 1484 1487 1491 1494 1497 1500 1503 1507 1510 1513 1515 1518 1520 1522 1524 1526 1527 1528 1530 1531 1532 1532 1533 1533 1534 1534 1534 1534 1535 1534 1534 1534 1534 1534 1533
1471 1470 1470 1469 1470 1470 1471 1472 1473 1473 1473 1474 1476 1478 1481 1485 1489 1492 1496 1499 1503 1506 1509 1512 1515 1517 1519 1522 1523 1525 1527 1528 1529 1530 1531 1532 1532 1533 1533 1534 1534 1534 1534 1534 1534 1533 1533 1533 1532
1469 1468 1468 1468 1469 1470 1470 1471 1472 1471 1472 1473 1475 1478 1481 1484 1488 1492 1496 1499 1502 1505 1508 1511 1514 1516 1519 1521 1523 1525 1526 1528 1529 1530 1531 1531 1532 1532 1533 1533 1533 1533 1533 1533 1533 1532 1532 1532 1531
1466 1467 1467 1468 1468 1469 1470 1470 1471 1469 1471 1472 1475 1477 1480 1483 1487 1490 1494 1497 1501 1504 1507 1510 1513 1516 1518 1520 1522 1524 1526 1527 1528 1529 1530 1531 1531 1532 1532 1532 1532 1532 1532 1532 1531 1531 1531 1530 1529
1465 1467 1467 1466 1467 1468 1469 1471 1469 1468 1470 1471 1474 1477 1479 1483 1486 1489 1492 1496 1499 1503 1506 1509 1512 1515 1517 1519 1522 1523 1525 1526 1527 1529 1529 1530 1531 1531 1531 1531 1531 1531 1531 1531 1530 1530 1529 1528 1527
1464 1468 1470 1465 1466 1467 1472 1472 1466 1467 1468 1470 1472 1475 1478 1481 1484 1488 1491 1495 1498 1501 1505 1508 1511 1513 1516 1518 1521 1522 1524 1525 1527 1528 1529 1529 1530 1530 1530 1530 1530 1530 1530 1529 1529 1528 1527 1526 1525
1466 1470 1469 1467 1464 1465 1469 1469 1466 1466 1467 1468 1471 1473 1476 1479 1482 1486 1489 1492 1496 1499 1503 1506 1509 1512 1514 1517 1519 1521 1523 1524 1526 1527 1528 1528 1529 1529 1529 1529 1529 1529 1528 1528 1527 1526 1525 1524 1522
1465 1467 1467 1467 1464 1466 1468 1467 1465 1465 1466 1467 1469 1471 1473 1476 1479 1483 1487 1490 1494 1497 1500 1504 1507 1510 1513 1515 1518 1520 1521 1523 1524 1526 1526 1527 1527 1528 1528 1528 1528 1527 1527 1526 1525 1524 1523 1522 1520
1459 1464 1465 1465 1463 1465 1467 1467 1465 1464 1465 1466 1467 1468 1470 1473 1477 1480 1484 1487 1491 1494 1497 1501 1504 1507 1510 1513 1515 1517 1519 1521 1523 1524 1525 1526 1526 1526 1527 1526 1526 1525 1525 1524 1523 1522 1521 1519 1518
1458 1462 1464 1464 1463 1465 1467 1467 1463 1462 1462 1462 1463 1465 1467 1470 1473 1476 1480 1483 1487 1490 1494 1497 1501 1504 1507 1510 1513 1516 1518 1520 1521 1522 1523 1524 1525 1525 1525 1525 1524 1524 1523 1522 1521 1520 1518 1517 1516
1457 1460 1463 1464 1464 1465 1467 1466 1462 1458 1458 1459 1460 1461 1463 1465 1468 1472 1475 1479 1483 1486 1490 1494 1497 1501 1505 1508 1511 1514 1516 1518 1519 1520 1521 1522 1523 1523 1523 1523 1522 1522 1521 1520 1519 1518 1517 1515 1514
1456 1456 1459 1462 1467 1472 1469 1473 1461 1458 1457 1456 1456 1457 1459 1461 1464 1467 1471 1474 1478 1482 1487 1490 1494 1498 1502 1505 1508 1510 1512 1514 1516 1518 1519 1520 1521 1521 1521 1521 1520 1520 1519 1518 1517 1516 1515 1514 1512
1452 1454 1458 1462 1468 1474 1472 1474 1462 1458 1456 1453 1453 1453 1454 1457 1460 1463 1466 1470 1474 1479 1483 1487 1491 1495 1498 1502 1505 1508 1510 1512 1514 1516 1517 1518 1519 1519 1519 1518 1518 1517 1516 1516 1515 1514 1513 1511 1510
1451 1456 1462 1467 1471 1475 1470 1473 1463 1458 1450 1449 1449 1449 1450 1453 1456 1459 1463 1467 1471 1475 1479 1483 1487 1491 1495 1498 1501 1504 1507 1509 1511 1513 1514 1515 1516 1516 1516 1516 1515 1515 1514 1513 1512 1511 1510 1509 1508
1449 1459 1470 1474 1478 1472 1466 1466 1456 1449 1446 1445 1446 1446 1447 1450 1452 1455 1459 1463 1467 1471 1475 1479 1483 1487 1491 1495 1498 1501 1504 1506 1508 1510 1511 1512 1512 1513 1513 1513 1512 1512 1511 1510 1509 1508 1507 1506 1505
1446 1450 1461 1467 1471 1470 1467 1464 1453 1446 1444 1443 1443 1444 1445 1447 1449 1452 1455 1459 1463 1467 1471 1475 1479 1483 1487 1491 1494 1498 1501 1503 1505 1507 1508 1509 1509 1510 1510 1510 1509 1509 1508 1507 1506 1505 1504 1503 1501
1445 1449 1452 1463 1469 1470 1468 1463 1452 1444 1443 1442 1442 1443 1443 1445 1447 1449 1453 1456 1460 1463 1467 1471 1475 1480 1484 1488 1491 1494 1497 1500 1502 1504 1505 1506 1507 1507 1507 1507 1506 1506 1505 1504 1503 1502 1500 1499 1498
1439 1445 1454 1460 1464 1462 1458 1457 1451 1444 1443 1442 1443 1442 1443 1444 1445 1448 1451 1454 1457 1461 1464 1469 1472 1476 1480 1484 1488 1491 1494 1496 1499 1500 1502 1503 1504 1504 1504 1503 1503 1502 1501 1500 1499 1498 1497 1495 1494
1441 1445 1448 1456 1459 1459 1459 1452 1443 1442 1442 1443 1443 1442 1442 1443 1444 1446 1449 1452 1455 1459 1462 1466 1470 1474 1478 1481 1485 1488 1490 1493 1495 1497 1498 1499 1500 1500 1500 1500 1499 1498 1497 1497 1495 1494 1493 1492 1490
1436 1439 1446 1451 1459 1460 1458 1453 1442 1441 1441 1441 1442 1442 1443 1443 1445 1446 1448 1451 1454 1457 1460 1464 1467 1471 1475 1479 1482 1485 1487 1490 1492 1493 1495 1496 1496 1497 1496 1496 1495 1494 1494 1493 1492 1490 1489 1488 1486